Weather History for KTLH - March, 2012

Change the Weather History Date:

Tuesday, March 20, 2012

  Actual Average Record
Temperature  
Mean Temperature 72 °F 61 °F  
Max Temperature 83 °F 75 °F 89 °F (2015)
Min Temperature 61 °F 48 °F 28 °F (1988)
Degree Days  
Heating Degree Days 0    
Month to date heating degree days 25  
Since 1 July heating degree days 1039  
Cooling Degree Days 7    
Month to date cooling degree days 86  
Year to date cooling degree days 130  
Growing Degree Days 22 (Base 50)    
Moisture  
Dew Point 58 °F    
Average Humidity 65    
Maximum Humidity 93    
Minimum Humidity 37    
Precipitation  
Precipitation 0.00 in 0.18 in 2.28 in (1933)
Month to date precipitation 4.13 4.12  
Year to date precipitation 10.28 13.31  
Sea Level Pressure  
Sea Level Pressure 30.09 in    
Wind  
Wind Speed 6 mph (SE)    
Max Wind Speed 17 mph    
Max Gust Speed 22 mph    
Visibility 10 miles    
Events      
T = Trace of Precipitation, MM = Missing Value Source: NWS Daily Summary

Daily Weather History Graph

Daily Weather History Graph

Search for Another Location

Airport or City:

Trip Planner

Search our weather history database for the weather conditions in past years. The results will help you decide how hot, cold, wet, or windy it might be!

Date:

Astronomy

Mar. 20, 2012 Rise Set
Actual Time 7:40 AM EDT 7:49 PM EDT
Civil Twilight 7:16 AM EDT 8:13 PM EDT
Nautical Twilight 6:48 AM EDT 8:41 PM EDT
Astronomical Twilight 6:20 AM EDT 9:09 PM EDT
Moon 6:16 AM EDT (3/20) 6:19 PM EDT (3/20)
Length of Visible Light 12h 56m
Length of Day
12h 08m
Waning Crescent, 4% of the Moon is Illuminated
Mar 20
Waning Crescent
Mar 22
New
Mar 30
First Quarter
Apr 6
Full
Apr 13
Last Quarter

Hourly Weather History & Observations

Time (EDT) Temp. Heat Index Dew Point Humidity Pressure Visibility Wind Dir Wind Speed Gust Speed Precip Events Conditions
12:53 AM 63.0 °F - 59.0 °F 87% 30.10 in 10.0 mi SE 3.5 mph - N/A   Clear
1:53 AM 64.0 °F - 60.1 °F 87% 30.09 in 10.0 mi East 4.6 mph - N/A   Clear
2:53 AM 64.0 °F - 60.1 °F 87% 30.08 in 10.0 mi Calm Calm - N/A   Clear
3:53 AM 63.0 °F - 60.1 °F 90% 30.06 in 10.0 mi East 3.5 mph - N/A   Clear
4:53 AM 64.0 °F - 60.1 °F 87% 30.06 in 10.0 mi ESE 5.8 mph - N/A   Clear
5:53 AM 63.0 °F - 59.0 °F 87% 30.07 in 10.0 mi ESE 5.8 mph - N/A   Clear
6:53 AM 62.1 °F - 59.0 °F 90% 30.09 in 10.0 mi ESE 4.6 mph - N/A   Clear
7:53 AM 62.1 °F - 59.0 °F 90% 30.09 in 10.0 mi East 8.1 mph - N/A   Clear
8:53 AM 64.0 °F - 60.1 °F 87% 30.12 in 10.0 mi ESE 8.1 mph - N/A   Clear
9:53 AM 70.0 °F - 62.1 °F 76% 30.14 in 10.0 mi ESE 6.9 mph - N/A   Partly Cloudy
10:53 AM 75.0 °F - 61.0 °F 62% 30.15 in 10.0 mi ESE 10.4 mph - N/A   Partly Cloudy
11:53 AM 78.1 °F - 60.1 °F 54% 30.15 in 10.0 mi SE 9.2 mph - N/A   Scattered Clouds
12:53 PM 80.1 °F 80.4 °F 57.0 °F 45% 30.15 in 10.0 mi South 10.4 mph 17.3 mph N/A   Partly Cloudy
1:53 PM 80.6 °F 80.8 °F 57.2 °F 45% 30.13 in 10.0 mi South 10.4 mph 21.9 mph N/A   Partly Cloudy
2:53 PM 82.0 °F 81.3 °F 54.0 °F 38% 30.10 in 10.0 mi South 10.4 mph - N/A   Partly Cloudy
3:53 PM 82.0 °F 81.6 °F 55.9 °F 41% 30.07 in 10.0 mi SE 5.8 mph 18.4 mph N/A   Partly Cloudy
4:53 PM 82.0 °F 81.6 °F 55.9 °F 41% 30.04 in 10.0 mi South 8.1 mph - N/A   Partly Cloudy
5:53 PM 80.6 °F 80.8 °F 57.2 °F 45% 30.03 in 10.0 mi South 8.1 mph - N/A   Partly Cloudy
6:53 PM 79.0 °F - 55.0 °F 44% 30.04 in 10.0 mi South 6.9 mph - N/A   Partly Cloudy
7:53 PM 75.0 °F - 55.9 °F 51% 30.05 in 10.0 mi South 3.5 mph - N/A   Partly Cloudy
8:53 PM 71.1 °F - 57.0 °F 61% 30.06 in 10.0 mi Calm Calm - N/A   Mostly Cloudy
9:53 PM 70.0 °F - 57.0 °F 63% 30.08 in 10.0 mi Calm Calm - N/A   Mostly Cloudy
10:53 PM 68.0 °F - 57.9 °F 70% 30.09 in 10.0 mi Calm Calm - N/A   Mostly Cloudy
11:53 PM 66.9 °F - 57.9 °F 73% 30.09 in 10.0 mi East 5.8 mph - N/A   Scattered Clouds